Location: Academy at Carrie F Thomas
(32.8490°N, 97.2053°W)
Time: 02:49:27
(UTC+00:00)

Meteor 1-25 Rocket - Pass Details

Date: 04 July 2022
Orbit: 835 x 892 km, 81.2° (Epoch: 13 August)

Event Time Altitude Azimuth Distance (km) Brightness Sun altitude
Exits shadow 08:39:12 33° 136° (SE) 1,461 5.3 -26.7°
Maximum altitude 08:41:08 43° 92° (E) 1,227 5.2 -26.5°
Drops below altitude 10° 08:46:37 10° 23° (NNE) 2,562 7.7 -25.8°
Sets 08:49:10 0° 17° (NNE) 3,501 8.6 -25.5°
